Current Version              Previous Version:    01  02  03  04  05  06  07  08  09  10  11  12  13  14  15  16  17  18  19  20  21  22  23  24  25  26  27  28  29  30  
   31  32  33  34  35  36  37  38  39  40  41  42  43  44  45  46  47  48  49  50  51  52  53  54  55  56  57  58  59  60  

[Printable]
577
ASUS44 KLUB 162201
RWRTX
WEST TEXAS WEATHER ROUNDUP
NATIONAL WEATHER SERVICE LUBBOCK TX
500 PM CDT WED APR 16 2014

NOTE: "FAIR" INDICATES FEW OR NO CLOUDS BELOW 12,000 FEET WITH NO
SIGNIFICANT WEATHER AND/OR OBSTRUCTIONS TO VISIBILITY.

TXZ004-006>008-010-012-014-016-OKZ002-162300-
TEXAS PANHANDLE/OKLAHOMA PANHANDLE

CITY           SKY/WX    TMP DP  RH WIND       PRES   REMARKS
AMARILLO       MOSUNNY   77  11   8 NE9G21    29.77F
BORGER         PTSUNNY   73  16  11 NE17      29.79F
DALHART        MOSUNNY   68  26  20 NE21G30   29.83F
GUYMON         PTSUNNY   64  27  24 N21G26    29.85F
$$

TXZ026-029-035-045-048-162300-
SOUTHERN PANHANDLE/SOUTH PLAINS/ROLLING PLAINS

CITY           SKY/WX    TMP DP  RH WIND       PRES   REMARKS
CHILDRESS      SUNNY     78  18  10 S18G26    29.76F
LUBBOCK        MOSUNNY   82  12   7 S15G23    29.72F
$$

TXZ052-054-060>062-072-078-127-140-154-169-162300-
PERMIAN BASIN/CONCHO VALLEY/BIG COUNTRY/EDWARDS PLATEAU

CITY           SKY/WX    TMP DP  RH WIND       PRES   REMARKS
ABILENE        SUNNY     76  29  17 S20G33    29.82F
BROWNWOOD      SUNNY     72  32  23 SE20G31   29.87F
JUNCTION       MOSUNNY   72  31  22 S17G25    29.88F
MIDLAND        SUNNY     80  25  13 S15G22    29.76F
ODESSA         SUNNY     82  20  10 SE14G21   29.76F
SAN ANGELO     SUNNY     77  27  15 S16G26    29.82F
WINK           SUNNY     86  18   8 SE14G20   29.70F
$$

TXZ055-058-074-075-080-082-162300-
FAR WEST/SOUTHWEST MOUNTAINS/TRANS PECOS

CITY           SKY/WX    TMP DP  RH WIND       PRES   REMARKS
DRYDEN           N/A     76  31  19 SE16      29.81F
EL PASO        MOSUNNY   83   1   4 W7G17     29.77F
FORT STOCKTON  SUNNY     83  19   9 SE24G33   29.73F
GUADALUPE PASS SUNNY     78   6   6 SW38G48   29.84F
MARFA          MOSUNNY   79  19  11 W12       29.87F
PECOS          SUNNY     89  23   9 S6        29.69F
PRESIDIO       FAIR      83  14   7 CALM      29.77F
$$

TXZ014-016-019-021>030-083-162300
TEXAS TECH WEST TEXAS MESONET/TEXAS PANHANDLE/NORTHERN SOUTH PLAINS

CITY           SKY/WX    TMP DP  RH WIND       PRES   REMARKS
ABERNATHY 5ENE   N/A     81  13   8 S18       29.73F
AMARILLO 9NNE    N/A     74  17  11 NE12      29.77F
AMARILLO 7SSE    N/A     76  13   9 NE9       29.77F
AMHERST 1NE      N/A     82   2   4 SW10      29.71F
BOOTLEG 11WNW    N/A     75  17  11 NE17      29.78F
CANADIAN 6E      N/A     73  19  13 SE10      29.80S
CAPROCK CYN SP   N/A     81  19  10 SE20      29.73F
CHILDRESS 2NNE   N/A     78  19  11 SE12      29.76F
CLARENDON 2WSW   N/A     76  18  11 SE15      29.76F
CLAUDE 12SW      N/A     78  17  10 E13       29.76F
DIMMITT 2NE      N/A     80  17   9 N17       29.72F
FLOYDADA 2NNE    N/A     80  13   8 S20       29.74F
FRIONA 2NE       N/A     78  12   8 NE14      29.74F
GOODLETT 3W      N/A     78  21  12 SE15      29.76F
HART 3N          N/A     81  10   7 SW12      29.71F
HEREFORD 2NW     N/A     77  13   8 NE15      29.74F
MCLEAN 1E        N/A     73  18  12 E5        29.79F
MEMPHIS 1NE      N/A     78  17  10 SE15      29.75F
MULESHOE 2SSW    N/A     83   2   4 S10       29.72F
OLTON 6S         N/A     81  12   7 E8        29.71F
PALO DURO SP     N/A     78  15   9 NE8       29.76F
PAMPA 2E         N/A     72  16  12 E12       29.80F
PLAINVIEW 1S     N/A     80  15   9 S14       29.71F
SILVERTON 7ESE   N/A     79  16   9 E12G24    29.73F
TULIA 2ENE       N/A     81  20  10 SE10      29.72F
TURKEY 2WSW      N/A     81  18   9 SE18      29.72F
UMBARGER 3NNE    N/A     77  13   9 N10       29.76F
$$

TXZ033>036-039>041-045>048-162300
TEXAS TECH WEST TEXAS MESONET/SOUTH PLAINS

CITY           SKY/WX    TMP DP  RH WIND       PRES   REMARKS
AIKEN 3WSW       N/A     80  19  10 S16       29.73F
ANDREWS 2NE      N/A     82  17   9 S12       29.76F
ANTON 6SSW       N/A     83  15   8 S20G29    29.71F
BROWNFIELD 2S    N/A     82  11   7 S14G28    29.74F
DENVR CTY 7WNW   N/A     82  12   7 S16       29.75F
GAIL 2ESE        N/A     81  21  10 S16       29.75F
LAMESA 2SE       N/A     80  20  10 SE12      29.76F
LEVELLAND 4S     N/A     82   6   5 S15       29.72F
LUBBOCK 3WNW     N/A     83   9   6 S14       29.73F
MORTON 1ENE      N/A     82   6   5 SW12      29.72F
ODONNELL 1N      N/A     81  15   8 S13       29.75F
PLAINS 3N        N/A     82   6   5 S14       29.74F
RALLS 1SE        N/A     80  17   9 S17       29.76F
REESE CENTER     N/A     81  11   7 S18       29.72F
SEAGRAVES 1SW    N/A     82  12   7 S16       29.74F
SEMINOLE 2NNE    N/A     83  15   8 S16       29.75F
SLATON 2NE       N/A     80  16   9 S15G26    29.74F
SNYDER 3E        N/A     80  22  12 S18       29.77F
SUNDOWN 8SW      N/A     83   8   6 S17       29.74F
TAHOKA 3NNE      N/A     82  13   7 S16       29.74F
WOLFFORTH 6SSW   N/A     82   9   6 S16       29.73F
$$

TXZ031-032-036>038-042>044-162300-
TEXAS TECH WEST TEXAS MESONET/ROLLING PLAINS

CITY           SKY/WX    TMP DP  RH WIND       PRES   REMARKS
ASPERMONT 3NE    N/A     80  23  12 S14G24    29.77F
FLUVANNA 3WNW    N/A     80  21  11 S22       29.76F
GRAHAM 5SSW      N/A     80  17   9 S20       29.74F
GUTHRIE 10WSW    N/A     79  23  12 S18G28    29.75F
HASKELL 1NW      N/A     75  26  16 S16       29.79F
JAYTON 1SSE      N/A     80  25  13 S15G28    29.76F
KNOX CITY 3NW    N/A     78  24  14 S20       29.78F
LK A HENRY 1NW   N/A     82  23  11 S15       29.74F
NORTHFIELD 1S    N/A     80  18   9 S12       29.74F
ODELL 4ENE       N/A     75  25  15 S15       29.81F
PADUCAH 10SW     N/A     78  21  12 S15       29.76F
POST 1NE         N/A     82  20  10 S13       29.74F
RRING SPRGS 3N   N/A     78  21  12 S15       29.76F
SEYMOUR 3NW      N/A     75  29  18 S20       29.80F
SPUR 1W          N/A     80  20  10 S13       29.74F
WEINERT 2NNE     N/A     76  29  17 S18       29.79F
WHITE RVR 6NE    N/A     80  17   9 S20       29.74F
$$

TXZ052-054-060>062-072-078-127-140-154-169-162300-
TEXAS TECH WEST TEXAS MESONET/PERMIAN BASIN/
CONCHO VALLEY/BIG COUNTRY/EDWARDS PLATEAU

CITY           SKY/WX    TMP DP  RH WIND       PRES   REMARKS
COYANOSA 2N      N/A     86  20   8 E20       29.72F
JUNCTION 1SSW    N/A     73  33  22 S12       29.89F
MERTZON 3NNE     N/A     76  30  19 S15       29.83F
SAN ANGELO 7NW   N/A     78  25  14 S15G25    29.82F
STRLNG CT 4WSW   N/A     78  28  16 S18       29.81F
ST LAWRNCE 5SW   N/A     77  24  13 S20       29.79F
WALL 1E          N/A     77  29  17 S16       29.83F
$$

TXZ055-058-074-075-080-082-162300-
TEXAS TECH WEST TEXAS MESONET/FAR WEST/SOUTHWEST MOUNTAINS/TRANS PECOS

CITY           SKY/WX    TMP DP  RH WIND       PRES   REMARKS
PRSMN GAP BBNP   N/A     80  22  12 NE10      29.79F
$$